STARLINK-11139, 60402

Orbit data source: Space-Track

STARLINK-11139, 60402 is a payload satellite owned by SpaceX/Seattle (US) in LEO that was launched on Sat, 10 Aug 2024 UTC via an FALCON 9 launch vehicle from the Air Force Eastern Test Range (AFETR). Payload-class satellites include a variety of spacecraft equipped with specific instruments for various scientific and technological missions. These include communications satellites like Starlink; space stations such as the ISS; scientific satellites like the Hubble; Earth observation satellites from companies like Planet Labs, Umbra, and HawkEye 360; GPS; miniature CubeSats for education and research; and military/defense satellites.

Loading next visibility...
Identifier
60402, 2024-141E
Orbit
LEO
Last TLE update
19 hours ago
Origin
Manufacturer
SpaceX/Seattle
Mission
Operational Commercial Communications
Bus & Motor
STARLINK V2M, Unknown motor
Mass
730 kg wet, ~700 kg dry
Launch date (UTC)
2024-08-10 (11 months ago)
Launch vehicle
FALCON 9
Launch site
Air Force Eastern Test Range (AFETR)
Object type
Payload
Rocket body
Debris
Shape & HBR
Box + 2 Pan, 29 m
Radar Cross Section
36.964 m², Large (>1 m²)

Expand to show TLE details & history

TLE from 19 hours ago
0 STARLINK-11139
1 60402U 24141E   25186.37463862 -.00000999  00000-0 -33856-5 0  9994
2 60402  53.1593 225.1147 0001287  79.0921 281.0242 15.69701369 52900
Epoch: 2025-07-05T08:59Z
TLE epoch observation values (Epoch: 2025-07-05T08:59:28.776Z)
Latitude
-0.00001°
Longitude
166.6312°
Altitude
360.501 km
Speed
7.694 km/s
True Right ascension
15h 00m 27s
True Declination
0° 00' 00"
Sunlit
Object was in full shadow at epoch
Visualization orbit readout
Latitude
52.32545°
Longitude
-91.97654°
Altitude
365.258 km
Speed
7.697 km/s
Apparent Right ascension
01h 03m 09s
Apparent Declination
10° 53' 24"
Sunlit
Object is in daylight
Visualization observer readout
Local Sidereal Time
15:42:00
Azimuth
44.9° NE
Elevation
-27.269°
Doppler factor
1
Orbital elements
Apogee altitude
360.879 km
Perigee altitude
359.145 km
Semi-major axis
6,738.149 km
Eccentricity
0.00013
Inclination
53.1593°
RAAN
225.1147°
Arg. of periapsis
79.0921°
True anomaly
Unknown
Mean anomaly
281.0242°
Eccentric anomaly
Unknown
Mean motion
3.92403 °/min
Orbital period
91.74 mins
BSTAR
-0.0000033856
Loading maneuver chart data...
Loading SW <> Apogee altitude chart data...
Loading historical data...
Loading historical data...
Loading historical data...
Loading historical data...
Loading historical data...
Loading historical data...
Loading historical data...

STARLINK-11139 Visibility forecast

Observer location: undefined°, undefined°

Span
Click to sort rows by Start time (UTC) header in descending order
Start Az.
Max El. time (UTC)
Max El. Az.
Max El.
End time (UTC)
End Az.
5 mins2025-07-06 05:01:56.442Z212.964° SW2025-07-06 05:03:56.442Z167.691° S37.612°2025-07-06 05:06:56.442Z58.911° ENE
|